Regional Weather Roundup
Issued by NWS

Home | Current Version | Previous Version | Text Only | Print | Product List | Glossary Off
Versions: 1 2 3 4 5 6 7 8 9 10 11 12 13 14 15 16 17 18 19 20 21 22 23 24 25 26 27 28 29 30 31 32 33 34 35 36 37 38 39 40 41 42 43 44 45 46 47 48 49 50

521
ASUS45 KTFX 261610
RWRMT
MONTANA REGIONAL WEATHER ROUNDUP
NATIONAL WEATHER SERVICE GREAT FALLS MT
1000 AM MDT MON SEP 26 2016

NOTE: "FAIR" INDICATES FEW OR NO CLOUDS BELOW 12000 FEET WITH NO
SIGNIFICANT WEATHER AND/OR OBSTRUCTIONS TO VISIBILITY.

MTZ001>007-043-261700-
WEST OF THE DIVIDE

CITY           SKY/WX    TMP DP  RH WIND       PRES   REMARKS
KALISPELL      MOSUNNY   52  45  77 N3        30.36F
MISSOULA       MOSUNNY   47  44  90 CALM      30.42S
MULLAN PASS    MOSUNNY   52  40  63 S8        30.41S
ANACONDA         N/A     55  43  62 SE8       30.42F
DEER LODGE       N/A     48  43  81 CALM      30.46S
EUREKA           N/A     48  43  81 CALM      30.36S
HAMILTON         N/A     54  43  66 S7        30.40F
LIBBY            N/A     48  43  81 CALM      30.36S
PLAINS           N/A     48  43  83 CALM      30.34F
RONAN            N/A     55  45  69 CALM      30.37S
$$

MTZ008-052>055-261700-
SOUTHWEST MONTANA

CITY           SKY/WX    TMP DP  RH WIND       PRES   REMARKS
BOZEMAN        SUNNY     54  44  69 CALM      30.43S
DILLON         SUNNY     52  41  66 SW7       30.45F
W YELLOWSTONE  SUNNY     41  34  75 CALM      30.55S
ENNIS          SUNNY     54  41  62 CALM      30.50S
THREE FORKS      N/A     53  33  46 CALM      30.37S
TWIN BRIDGES     N/A     51  41  69 S5        30.38S
$$

MTZ009-010-012-014-046-048-049-054-261700-
EAST SLOPES AND CENTRAL MONTANA

CITY           SKY/WX    TMP DP  RH WIND       PRES   REMARKS
CUT BANK       MOSUNNY   56  43  61 SW3       30.26S
GREAT FALLS    SUNNY     60  43  53 S16       30.29F
MALMSTROM AFB  CLOUDY    60  47  61 SW12      30.28F
HELENA         SUNNY     54  43  66 CALM      30.38S
AUGUSTA          N/A     57  44  60 S8        30.29F
BOWMANS CRNR     N/A     57  44  60 S21       30.29F
CHOTEAU          N/A     61  45  55 SW7       30.28F
CONRAD           N/A     60  51  72 S6        30.25S
FAIRFIELD        N/A     59  44  57 S17G23    30.27F
POWER            N/A     58  43  58 S13       30.28F
RAYNESFORD       N/A     59  45  59 N2        30.30F
$$

MTZ011-013-016-021-045-047-050-051-261700-
NORTH CENTRAL MONTANA

CITY           SKY/WX    TMP DP  RH WIND       PRES   REMARKS
HAVRE          MOSUNNY   56  46  69 SW14      30.25F
LEWISTOWN      CLOUDY    57  44  62 CALM      30.32S
N BAR RANCH      N/A     61  43  51 VRB3      30.35S
CHINOOK          N/A     55  45  67 CALM      30.25F
DENTON           N/A     58  47  67 S7        30.26F
GEYSER           N/A     57  44  60 S8        30.29F
GRASS RANGE      N/A     61  43  51 W14       30.28S
JUDITH GAP       N/A     59  42  53 SW7G15    30.34S
ROY              N/A     62  46  56 MISG      30.29R
STANFORD         N/A     60  43  52 S6        30.31F
$$

MTZ017>020-022>027-061-062-261700-
NORTHEAST MONTANA

CITY           SKY/WX    TMP DP  RH WIND       PRES   REMARKS
GLASGOW        SUNNY     49  40  71 W7        30.25S
JORDAN           N/A     58  45  62 W3        30.28R
SIDNEY         SUNNY     52  45  77 S5        30.23F
WOLF POINT     SUNNY     51  42  71 W8        30.25S
PLENTYWOOD       N/A     50  39  66 W6        30.21F
POPLAR           N/A     48  41  76 SW7       30.25S
SCOBEY           N/A     52  36  54 CALM      30.19F
$$

MTZ028>42-056>058-261700-
SOUTHCENTRAL AND SOUTHEAST MONTANA

CITY           SKY/WX    TMP DP  RH WIND       PRES   REMARKS
BAKER          SUNNY     53  42  66 W15       30.26S
BILLINGS       MOSUNNY   57  43  59 SW13      30.35S
LIVINGSTON     SUNNY     63  39  41 W18G25    30.38F
MILES CITY     SUNNY     59  41  51 W12       30.29R
BIG TIMBER     SUNNY     61  41  48 W21G28    30.38F
EKALAKA          N/A     55  41  59 W12       30.23S
FORSYTH          N/A     57  45  62 W8        30.30S
HARLOWTON        N/A     58  46  63 W9        30.35S
LAUREL           N/A     57  43  59 S5        30.30F
ROUNDUP          N/A     56  43  61 S9        30.21S
$$

REGIONAL REPORTS...DAKOTAS

CITY           SKY/WX    TMP DP  RH WIND       PRES   REMARKS
WILLISTON      SUNNY     52  40  63 S3        30.22S
MINOT          SUNNY     58  36  43 W15       30.13S
DICKINSON      SUNNY     56  39  53 NW9       30.21R
CROSBY           N/A     55  32  41 NW12      30.20F
WATFORD CITY     N/A     57  39  51 W12       30.22S
BISMARCK       SUNNY     60  38  43 NW10      30.17S
GRAND FORKS    SUNNY     58  40  51 NW20G30   29.93S
FARGO          SUNNY     60  38  43 W21       29.98F
BUFFALO SD       N/A     62  42  47 W20       30.17F
RAPID CITY     SUNNY     67  40  37 NW10      30.28R
$$

REGIONAL REPORTS...WYOMING/IDAHO/WASHINGTON

CITY           SKY/WX    TMP DP  RH WIND       PRES   REMARKS
GILLETTE       CLOUDY    60  42  51 NW14      30.35S
SHERIDAN       SUNNY     64  44  48 NW6       30.36S
BUFFALO WY     SUNNY     62  42  47 N6        30.40S
CODY           SUNNY     57  43  58 CALM      30.42S
YELLOWSTONE LA   N/A     44  39  82 E5        30.57S
IDAHO FALLS    SUNNY     49  41  74 N3        30.48R
SALMON         SUNNY     48  41  76 CALM      30.47S
BOISE          SUNNY     65  40  39 SE7       30.34R
SPOKANE        PTSUNNY   55  43  63 NE12      30.27F
$$

REGIONAL REPORTS...ALBERTA

CITY           SKY/WX    TMP DP  RH WIND       PRES   REMARKS
EDMONTON       SUNNY     54  39  58 S8        30.05F
CALGARY        PTSUNNY   57  43  58 SE6       30.14F
LETHBRIDGE     PTSUNNY   59  46  63 S15       30.18F
MEDICINE HAT   PTSUNNY   55  46  71 S12       30.19S
MILK RIVER       N/A     57  46  67 SW5         N/A
$$

REGIONAL REPORTS...SASKATCHEWAN

CITY           SKY/WX    TMP DP  RH WIND       PRES   REMARKS
SWIFT CURRENT  SUNNY     54  37  54 W13       30.20S
REGINA         MOSUNNY   52  37  58 NW9       30.19R
SASKATOON      SUNNY     50  37  62 VRB2      30.19R
VAL MARIE        N/A     54  43  66 SW2         N/A
ROCKGLEN         N/A     57  36  44 W10         N/A
ASSINIBOIA       N/A     55  43  62 S7          N/A
$$




USA.gov is the U.S. government's official web portal to all federal, state and local government web resources and services.